CAPE
11 70 29 0 2 0 0 210 314 178 174 297 404 94 369 540 545 367 660 878 913 743 723 399 691 240 91 528 166 46 260 112 67 117 168 206 302 467 456 514 757 899 805
63 96 58 19 13 1 0 0 156 90 350 317 254 414 309 717 868 568 996 882 965 992 522 907 869 139 120 565 89 54 301 209 45 82 135 60 27 262 288 296 466 689 866
149 120 30 25 21 0 40 35 123 100 454 251 400 566 444 325 690 714 847 1244 885 1232 851 896 894 367 55 352 235 218 362 118 111 59 147 163 18 203 111 155 215 296 269
146 77 49 68 20 19 3 65 176 109 435 469 359 808 483 210 403 650 624 1011 1224 1108 1235 861 727 440 628 652 580 928 519 252 97 160 57 130 113 68 25 128 167 271 296
125 119 63 65 0 0 0 239 206 160 264 453 183 425 745 406 140 527 774 840 1304 1026 1105 1272 964 706 473 635 624 664 833 961 923 541 578 97 30 106 133 144 167 243 171
224 173 159 72 85 72 0 392 236 177 255 258 196 101 478 642 438 343 788 926 1395 1146 972 1077 1228 766 526 592 835 907 943 762 1090 1079 720 517 75 78 278 240 302 274 402
350 224 224 217 176 135 53 390 310 178 177 284 550 146 332 471 779 580 697 956 1396 1258 1299 1039 1175 889 706 844 871 1094 1345 846 1080 1266 752 597 603 386 341 181 337 338 294
425 324 287 332 301 228 145 294 374 234 120 225 389 703 341 221 499 841 693 921 1222 1267 1275 1297 1068 1241 1003 1101 938 1214 1146 1312 1384 1312 1158 1055 412 634 602 126 165 290 427
465 407 382 388 279 232 157 175 399 234 148 66 56 186 723 636 319 753 870 969 908 1016 1291 1557 1252 1253 1293 922 1156 1165 1035 1425 1209 1494 911 1226 1032 427 384 1358 185 195 226
432 492 469 456 387 291 240 160 137 299 251 119 58 0 204 584 754 342 670 1002 998 1049 1036 1602 1457 1151 1250 1230 962 1106 1137 1434 1209 1264 1255 1049 928 487 578 1396 1415 501 463
349 485 500 449 434 422 393 303 249 144 451 346 153 37 17 227 793 660 267 745 1162 1086 1116 1422 1528 1376 1222 1243 1240 1149 901 1208 1234 989 906 1225 1503 1206 993 1158 1640 1604 1462
397 386 473 468 404 373 369 314 251 222 173 458 356 163 0 60 339 792 540 217 811 804 1165 1350 1578 1479 1304 1318 1220 1366 1191 1164 1411 1087 972 1419 1665 1727 1634 1329 1520 1340 1348
352 388 511 503 447 471 392 325 366 345 290 396 411 405 170 0 84 379 639 547 199 607 1583 1538 1723 1618 1504 1535 1601 1577 1454 1322 1399 1425 1380 1260 1534 1681 1871 1782 2063 2034 2109
350 341 152 217 138 296 445 427 420 534 450 454 491 539 608 259 28 49 318 400 577 132 847 1675 1580 1519 1669 1786 1707 1733 1666 1562 1410 1365 1496 1620 1734 1666 1592 1985 1969 1908 2051
153 101 160 111 125 120 355 433 450 502 674 578 664 512 703 747 450 197 17 150 266 457 301 1066 1662 1615 1460 1427 1393 1455 1558 1611 1527 1503 1550 1725 1867 1945 1734 1896 1978 2054 2120
182 214 142 134 156 89 63 337 383 475 794 832 802 913 650 862 852 671 506 194 9 178 539 920 1130 1476 1610 1452 1410 1379 1449 1520 1503 1422 1490 1682 1617 1799 2083 2073 2223 2265 2277
119 89 130 75 48 87 58 61 100 475 495 1097 1126 1157 1237 1017 943 928 870 763 532 81 280 593 1217 1361 1454 1506 1526 1343 1193 1431 1507 1508 1528 1625 1723 1867 1887 1989 2110 2005 2195
160 121 34 176 38 87 227 188 281 319 684 751 1394 1559 1497 1439 1355 1153 1020 990 896 748 409 549 540 1057 1440 1794 1790 1623 1497 1328 1319 1594 1786 1892 1871 1845 1897 1902 1881 1883 1913
4 174 18 49 92 122 304 421 431 377 597 1024 993 1164 1672 1595 1518 1433 1300 1187 1132 1043 982 580 1036 851 777 1117 1540 1813 1790 1574 1505 1427 1226 1582 1621 1711 1862 1900 1840 1800 1910
0 0 1 1 43 31 397 502 642 241 157 965 1056 1065 1099 1510 1610 1509 1452 1364 1311 1217 1138 1046 857 1190 1384 1430 1458 1686 1561 1474 1549 1510 1412 1347 1497 1642 1803 1866 1828 1848 1781
0 0 0 0 4 28 129 478 433 412 545 475 846 1085 976 1241 1479 1506 1476 1438 1394 1309 1240 1186 1066 879 939 1227 1506 1651 1624 1459 1321 1344 1236 1164 1224 1361 1474 1654 1430 1458 1539
0 0 0 0 7 0 0 10 274 327 416 551 461 581 1495 1602 1735 1504 1542 1465 1407 1400 1308 1350 1429 1210 1276 1543 1610 1738 1876 1684 1550 1371 1138 1010 961 986 1224 1606 1789 1893 1925
0 0 0 0 0 0 0 3 1 106 92 85 218 341 1000 1887 1745 1852 1686 1583 1466 1481 1523 1335 1269 1552 1603 1564 1760 1841 1867 1933 1881 1676 1521 1239 1091 1028 978 1038 1092 1129 1122
0 0 0 0 0 0 0 0 0 34 108 354 146 324 856 1833 2035 1946 1935 1805 1667 1525 1524 1660 1587 1506 1598 1765 1800 1865 2057 2103 2110 2088 1990 1884 1743 1644 1613 1499 1354 1408 1505
0 0 0 2 0 0 1 0 2 27 75 231 557 847 1252 1890 2210 2060 2104 2026 1922 1751 1656 1615 1620 1659 1674 1694 1900 1991 2022 2136 2237 2363 2372 2143 2079 2114 2105 1940 1646 1539 1512
9 1 0 2 0 0 4 2 0 2 18 83 330 1104 1431 2065 2436 2432 2290 2221 2155 2038 1903 1758 1737 1767 1830 1884 1972 2048 2299 2376 2412 2300 2118 2232 2257 2239 2270 2218 2021 1783 1639
CIN
-7 -5 -44 -7 -68 0 0 -73 -54 -45 -121 -40 -60 -119 -39 -77 -101 -94 -36 -27 -35 -29 -33 -94 -37 -51 -64 -46 -66 -84 -38 -92 -102 -54 -53 -70 -31 -40 -50 -62 -65 -78 -62
-14 0 -28 -145 -97 0 0 0 -78 -93 -89 -37 -79 -40 -51 -39 -46 -73 -54 -24 -41 -25 -53 -30 -38 -31 -58 -57 -85 -13 -52 -118 -76 -80 -71 -108 -139 -94 -102 -112 -70 -64 -93
-17 -31 -62 -42 -3 -19 -119 -174 -138 -96 -73 -31 -70 -68 -40 -26 -21 -23 -29 -52 -41 -26 -23 -32 -36 -37 -132 -42 -44 -111 -57 -70 -114 -94 -92 -54 -95 -85 -180 -159 -146 -97 -160
-40 -35 -28 -15 -48 -20 -25 -176 -151 -155 -82 -39 -53 -36 -53 -52 -38 -55 -74 -51 -48 -35 -36 -50 -18 -30 -27 -43 -38 -52 -28 -46 -86 -85 -107 -103 -90 -115 -191 -138 -132 -100 -154
-79 -30 -59 -33 0 0 0 -189 -153 -151 -120 -40 -61 -51 -17 -45 -55 -88 -37 -76 -28 -33 -29 -36 -44 -37 -33 -41 -56 -46 -64 -29 -37 -41 -42 -112 -158 -172 -137 -117 -141 -132 -132
-143 -111 -44 -37 -21 -29 0 -179 -162 -140 -133 -112 -70 -106 -25 -42 -47 -85 -53 -66 -43 -35 -57 -39 -25 -38 -35 -73 -57 -38 -38 -47 -46 -47 -69 -43 -122 -116 -76 -52 -64 -120 -56
-112 -76 -64 -6 -11 -24 -127 -202 -198 -156 -136 -124 -89 -111 -27 -50 -22 -32 -79 -57 -34 -43 -48 -40 -49 -38 -86 -42 -54 -50 -32 -40 -45 -40 -47 -74 -40 -53 -86 -92 -97 -116 -128
-91 -112 -75 -56 -44 -36 -42 -229 -226 -199 -164 -128 -84 -77 -58 -82 -60 -30 -79 -57 -49 -53 -81 -46 -51 -61 -48 -52 -38 -39 -39 -34 -45 -43 -51 -59 -92 -66 -55 -124 -114 -93 -92
-109 -124 -91 -77 -51 -53 -73 -63 -251 -246 -190 -230 -161 -129 -85 -94 -96 -45 -26 -34 -50 -58 -53 -43 -22 -59 -70 -69 -60 -52 -66 -50 -52 -54 -68 -77 -80 -112 -128 -38 -148 -119 -129
-126 -120 -93 -95 -112 -63 -67 -52 -97 -249 -246 -188 -139 0 -139 -124 -76 -106 -65 -46 -48 -66 -59 -73 -29 -50 -67 -63 -75 -53 -52 -48 -43 -46 -57 -76 -92 -144 -163 -84 -34 -121 -113
-107 -151 -146 -112 -110 -124 -105 -88 -66 -215 -237 -193 -169 -184 -214 -145 -124 -69 -117 -26 -34 -32 -42 -108 -66 -31 -78 -50 -68 -41 -55 -63 -45 -47 -46 -72 -43 -49 -58 -128 -75 -42 -61
-66 -114 -128 -96 -97 -98 -122 -136 -139 -106 -346 -242 -189 -179 0 -228 -160 -107 -91 -133 -28 -46 -66 -109 -88 -46 -89 -69 -80 -46 -32 -80 -40 -60 -92 -54 -52 -40 -35 -77 -82 -99 -53
-164 -87 -43 -83 -144 -94 -92 -126 -123 -371 -335 -257 -210 -199 -207 0 -276 -154 -118 -85 -100 -88 -62 -83 -83 -87 -79 -54 -54 -34 -29 -40 -50 -45 -44 -74 -49 -59 -27 -31 -36 -37 -32
-67 -23 -32 -374 -286 -183 -106 -126 -151 -363 -339 -287 -224 -180 -197 -200 -80 -278 -142 -134 -91 -168 -147 -55 -63 -62 -55 -33 -44 -37 -42 -34 -42 -56 -50 -45 -39 -43 -69 -30 -38 -54 -38
-85 -40 -74 -252 -184 -140 -28 -17 -87 -224 -315 -325 -274 -242 -196 -185 -164 -149 -68 -209 -222 -128 -198 -98 -45 -41 -61 -50 -46 -49 -53 -51 -56 -64 -64 -56 -31 -17 -27 -19 -23 -18 -28
-99 -106 -118 -208 -151 -145 -185 -23 -63 -95 -195 -260 -248 -216 -219 -174 -173 -156 -121 -134 -188 -272 -146 -110 -99 -40 -26 -37 -74 -63 -66 -70 -69 -77 -86 -68 -76 -57 -29 -25 -29 -17 -15
-31 -28 -41 -86 -147 -116 -162 -298 -180 -102 -113 -172 -196 -162 -150 -173 -171 -149 -124 -121 -142 -85 -247 -159 -69 -73 -55 -36 -44 -54 -67 -99 -95 -103 -95 -82 -87 -74 -59 -42 -23 -27 -31
-3 -1 -9 -50 -58 -54 -20 -105 -231 -230 -60 -79 -116 -152 -135 -113 -141 -113 -119 -109 -113 -138 -185 -192 -181 -100 -52 -43 -29 -39 -36 -48 -85 -109 -102 -74 -68 -68 -61 -52 -48 -49 -48
-10 -10 -16 -21 -12 -26 -80 -209 -261 -163 -94 -48 -67 -108 -78 -83 -103 -124 -114 -113 -94 -118 -129 -183 -134 -147 -174 -113 -50 -23 -18 -33 -57 -70 -104 -114 -115 -113 -66 -33 -40 -60 -67
0 0 -15 -1 -9 -80 -167 -149 -120 -57 -52 -33 -53 -72 -20 -45 -100 -127 -111 -126 -118 -119 -118 -121 -148 -124 -104 -98 -82 -40 -26 -39 -51 -63 -78 -87 -128 -124 -99 -47 -38 -54 -93
0 0 0 0 -42 -215 -94 -36 -68 -86 -205 -252 -163 -86 -65 -44 -119 -131 -142 -115 -125 -97 -122 -133 -129 -145 -170 -135 -94 -63 -33 -45 -85 -88 -115 -121 -114 -135 -114 -105 -97 -142 -108
0 0 0 0 -66 -42 0 -14 -16 -101 -125 -107 -58 -125 -53 -52 -33 -118 -142 -118 -112 -103 -107 -126 -130 -150 -127 -98 -89 -66 -29 -52 -56 -106 -162 -166 -150 -154 -143 -93 -79 -67 -58
0 0 0 0 0 0 0 -65 -91 -117 -170 -140 -121 -79 -50 -58 -47 -36 -52 -132 -105 -100 -118 -130 -171 -146 -103 -101 -97 -82 -61 -47 -28 -71 -103 -132 -119 -111 -101 -121 -114 -99 -118
0 0 0 0 0 0 0 0 0 -195 -220 -175 -255 -310 -183 -83 -38 -45 -32 -24 -109 -129 -128 -131 -159 -177 -131 -112 -107 -92 -66 -53 -36 -32 -47 -59 -68 -71 -66 -64 -68 -55 -53
0 0 0 0 0 0 -49 0 -111 -134 -195 -299 -251 -193 -120 -72 -52 -48 -51 -44 -47 -75 -169 -186 -149 -148 -175 -188 -135 -107 -106 -102 -95 -75 -32 -22 -43 -39 -40 -59 -86 -92 -88
-10 0 0 0 0 0 -203 -4 0 -89 -187 -186 -119 -54 -51 -67 -32 -36 -37 -51 -38 -26 -44 -84 -132 -151 -161 -139 -129 -114 -96 -92 -70 -46 -36 -36 -40 -43 -38 -46 -69 -91 -113
Wind_Speed
nan nan nan nan nan nan nan 3 4 5 7 6 6 nan 3 4 2 3 4 3 2 0 4 9 6 8 nan 9 8 nan 13 11 nan 8 12 11 15 16 17 20 22 23 24
nan nan nan nan nan nan nan nan 2 nan 5 4 5 6 3 2 2 3 1 4 2 4 7 7 7 11 8 6 nan nan 9 11 nan nan 9 nan nan 12 16 16 18 23 20
9 4 nan nan nan nan nan nan 7 4 6 4 7 8 8 8 6 3 4 7 3 8 5 7 7 7 nan 8 9 7 4 7 12 nan 6 9 nan 11 11 12 13 18 20
8 nan nan nan nan nan nan nan 9 6 6 4 6 7 5 4 7 5 5 8 8 10 8 8 9 10 9 9 8 7 4 4 nan 15 nan 11 9 nan nan 11 13 14 19
2 10 nan nan nan nan nan 7 10 9 5 4 3 4 6 7 6 7 7 8 12 10 11 11 10 9 8 8 6 6 5 6 8 12 13 nan nan 9 5 11 11 10 18
7 10 1 nan nan nan nan 8 8 10 8 5 5 3 5 7 8 9 8 8 9 10 10 9 9 9 9 8 7 6 6 6 6 10 13 11 nan nan 11 11 14 13 17
6 9 6 8 10 11 nan 8 7 8 10 6 7 4 6 8 7 7 8 7 10 10 9 6 6 7 9 8 6 5 5 6 5 7 11 16 9 10 12 9 13 16 17
4 13 6 3 5 6 3 7 8 6 8 8 9 10 7 12 11 11 10 7 7 7 3 3 4 6 8 6 6 7 6 5 4 9 10 10 14 10 11 9 11 15 18
12 14 14 7 5 6 6 3 8 7 7 nan nan 12 12 11 12 11 11 9 7 8 3 2 3 6 7 7 6 6 8 7 5 8 9 9 10 9 11 11 10 8 13
17 19 23 14 10 15 8 5 9 9 10 10 nan nan 14 15 16 15 13 11 11 7 6 4 2 4 6 4 4 4 6 7 7 5 6 7 7 7 9 12 12 9 6
9 17 17 23 18 17 13 9 8 9 13 11 11 nan nan 13 16 14 13 12 12 7 7 4 5 5 6 3 3 5 6 7 6 4 4 6 5 5 8 7 8 9 7
6 15 17 21 29 13 18 12 14 10 11 12 13 13 nan nan 14 16 13 12 12 12 10 8 6 6 5 6 4 3 4 6 5 4 3 3 4 6 4 6 8 8 8
18 15 14 11 17 19 21 17 21 13 13 16 15 14 14 nan nan 11 17 17 15 16 15 14 11 10 8 8 6 4 4 6 7 7 6 3 2 6 6 5 7 7 7
30 28 29 20 33 49 45 38 17 17 12 13 13 12 13 13 nan nan 15 19 18 14 15 16 14 13 12 10 8 7 5 4 6 7 7 7 7 4 6 8 7 8 8
46 49 39 38 42 37 39 49 35 17 10 5 5 6 9 15 19 16 nan 15 17 14 16 16 15 14 13 13 10 9 8 7 5 7 8 8 8 7 6 11 10 11 12
54 54 47 49 42 nan nan 42 44 28 13 6 4 6 5 7 13 20 17 18 nan 14 17 15 12 13 14 13 15 14 12 10 8 6 7 7 8 7 6 6 10 13 14
52 nan 53 nan nan nan nan nan 30 40 24 12 11 9 9 4 6 16 21 16 15 nan 13 14 16 12 12 15 15 15 15 13 9 7 8 8 8 10 12 10 9 11 11
52 53 nan 42 nan nan 38 38 38 39 41 30 16 13 7 8 6 9 14 17 18 16 15 15 14 15 15 16 15 14 15 16 11 8 8 9 8 12 14 14 14 15 17
nan 54 nan nan nan 51 48 42 38 44 40 38 33 25 12 5 6 6 7 14 18 18 16 17 16 14 14 18 17 20 16 12 12 12 10 10 10 12 15 15 14 13 14
nan nan nan nan nan nan 50 44 39 41 52 51 39 36 25 11 4 4 8 12 15 16 22 18 18 17 17 21 20 22 17 13 15 14 11 12 11 15 16 16 15 10 11
nan nan nan nan nan nan 52 51 38 53 68 52 62 42 36 17 7 8 10 12 14 17 16 17 19 18 18 18 22 24 20 15 16 16 16 17 16 13 17 17 13 12 15
nan nan nan nan nan nan nan nan 45 42 46 40 36 51 44 21 17 12 14 9 10 13 16 19 21 20 21 21 24 24 21 18 17 16 20 19 20 18 16 19 12 15 18
nan nan nan nan nan nan nan nan nan 47 nan nan 50 46 46 29 21 17 17 16 9 9 15 19 20 22 24 24 21 25 23 17 18 17 19 22 24 22 21 17 15 18 24
nan nan nan nan nan nan nan nan nan nan 54 47 57 50 48 37 25 27 26 21 15 10 10 15 19 23 25 24 25 28 28 18 21 14 20 28 32 30 26 26 25 27 27
nan nan nan nan nan nan nan nan nan nan nan 56 55 50 45 39 33 30 29 25 16 15 15 14 15 22 22 21 26 27 29 28 25 28 30 38 36 33 32 32 31 33 34
nan nan nan nan nan nan nan nan nan nan nan nan 45 46 46 47 44 38 38 50 39 20 18 20 20 17 14 23 27 26 29 31 35 41 33 27 28 31 30 29 31 34 33
Wind_Direction
nan nan nan nan nan nan nan 211 179 162 187 190 169 nan 188 186 171 105 295 41 354 145 122 108 119 116 nan 99 81 nan 88 109 nan 130 118 108 92 87 83 87 88 85 82
nan nan nan nan nan nan nan nan 157 nan 176 198 164 184 182 157 134 142 319 39 53 84 95 100 96 85 111 114 nan nan 114 106 nan nan 119 nan nan 120 89 87 84 84 90
105 94 nan nan nan nan nan nan 179 197 179 210 204 194 202 187 165 147 129 107 80 92 94 84 83 77 nan 85 95 104 99 89 106 nan 104 132 nan 117 111 101 88 87 93
66 nan nan nan nan nan nan nan 191 177 186 167 221 206 203 144 115 116 134 116 120 103 110 95 80 77 78 72 70 89 89 82 nan 119 nan 128 115 nan nan 118 106 102 96
91 49 nan nan nan nan nan 244 210 189 167 144 177 212 190 135 133 141 128 129 117 108 99 88 77 68 76 70 58 59 38 54 65 108 124 nan nan 112 124 99 98 95 97
25 342 64 nan nan nan nan 259 233 208 194 169 159 219 147 149 156 147 137 156 127 129 101 79 76 62 53 53 45 50 29 29 54 102 122 108 nan nan 98 83 87 82 101
348 306 346 59 31 13 nan 278 265 231 220 198 179 191 160 162 152 146 146 167 148 157 113 96 72 62 44 39 42 58 52 40 58 82 116 122 120 111 106 108 105 98 102
295 310 359 342 350 351 19 275 273 248 230 212 183 188 178 182 179 170 171 172 177 155 158 65 59 44 45 50 59 77 69 67 56 78 100 110 115 113 112 105 105 124 123
302 326 308 268 266 321 11 280 254 242 239 nan nan 178 181 189 198 182 196 191 197 190 210 321 12 11 27 51 51 71 66 74 75 72 91 106 116 117 113 117 106 114 134
256 310 303 275 281 288 279 281 240 243 232 212 nan nan 176 183 203 203 201 202 207 214 238 265 325 347 5 37 49 66 72 52 73 76 81 108 121 128 138 143 136 135 131
324 292 264 245 231 280 285 299 306 269 241 232 216 nan nan 188 203 218 221 222 226 231 240 279 316 335 339 342 4 53 51 55 60 59 66 94 114 146 147 150 153 160 161
292 306 291 269 263 234 278 295 317 306 273 234 226 214 nan nan 193 201 211 225 235 246 263 277 286 295 299 292 318 18 22 23 25 48 24 100 172 147 178 169 159 169 181
194 192 220 257 246 252 234 287 297 297 266 243 220 227 225 nan nan 196 213 215 215 229 238 251 272 279 283 284 280 312 334 348 356 353 336 354 238 184 192 197 180 192 193
203 191 196 217 203 207 222 248 253 264 274 258 234 208 227 227 nan nan 211 221 216 220 235 242 247 257 265 274 271 273 282 319 334 334 321 301 290 269 220 214 210 215 223
215 209 204 192 208 210 224 221 202 230 238 262 254 221 208 228 231 227 nan 221 227 215 229 241 249 257 262 259 268 264 269 278 298 315 313 289 283 300 270 235 223 228 229
209 211 210 220 202 nan nan 185 194 189 211 190 156 203 206 236 238 233 230 227 nan 231 231 239 253 261 258 272 282 275 261 263 284 303 305 283 275 277 290 268 250 248 239
211 nan 219 nan nan nan nan nan 211 205 192 195 205 184 197 196 240 226 226 229 232 nan 234 236 245 252 259 275 283 285 260 257 266 291 303 283 260 274 266 272 261 236 240
208 214 nan 223 nan nan 197 208 222 218 206 203 207 208 200 203 220 222 216 216 228 240 240 234 240 247 251 270 282 284 263 256 264 279 291 290 278 275 282 269 257 248 241
nan 210 nan nan nan 209 202 204 206 207 215 201 204 204 199 180 222 222 203 214 218 223 238 242 237 242 245 270 280 271 261 259 257 264 275 286 274 279 299 284 273 261 245
nan nan nan nan nan nan 193 196 211 225 210 210 199 202 191 172 175 215 216 214 220 219 225 235 242 243 243 259 276 279 264 262 256 258 261 293 280 280 293 287 288 282 255
nan nan nan nan nan nan 228 219 227 221 205 207 215 200 182 168 196 212 224 215 227 223 229 232 239 245 250 253 272 282 270 263 257 260 262 263 293 294 298 308 292 289 274
nan nan nan nan nan nan nan nan 236 216 202 203 192 201 187 186 206 234 240 225 233 230 229 237 240 237 243 257 264 276 285 274 258 257 258 256 277 291 295 282 287 275 268
nan nan nan nan nan nan nan nan nan 227 nan nan 198 196 184 190 201 229 251 249 245 242 241 236 238 242 241 244 264 274 278 278 255 245 250 258 267 271 268 286 273 264 258
nan nan nan nan nan nan nan nan nan nan 214 220 207 195 189 188 209 213 227 236 239 246 257 254 247 243 242 246 253 255 254 261 255 244 237 241 249 262 265 259 257 257 255
nan nan nan nan nan nan nan nan nan nan nan 195 192 197 195 197 208 210 224 232 229 241 249 251 245 246 245 246 251 255 255 255 256 248 238 241 247 252 256 255 258 254 254
nan nan nan nan nan nan nan nan nan nan nan nan 220 210 213 206 207 217 218 222 218 229 243 247 247 243 252 267 268 266 270 271 266 254 252 247 251 255 258 258 257 250 252